Вернуться в каталог

STARLINK-38008

АктивенСвязьSSO
NORAD 69724·PAYLOAD·🇺🇸 United States

Запущен Jun 28, 2026 с Vandenberg Space Force Base

Loading…

Ближайшие Пролёты (ближайшие 24 часа)

TLE

СвежийSource: CelesTrak SupGP

Эпоха: Sep 15, 2026, 03:06 UTC

1 69724C 26147W   26258.12965278 -.00030979  00000+0 -96163-3 0  2586
2 69724  97.2834 294.6220 0000911  87.6287 294.4611 15.33456650    13

Отслеживайте STARLINK-38008 в реальном времени с AllMySat

Download on the App Store